JAISAT-1 (44419 NORAD) Tracking and Keplerian Element Data

This shows tracking and keplerian element data for the satellite.

Feedback or suggestion? Click here.




ElementValue
Catalog44419
NameJAISAT-1
Epoch Orbit27370
Epoch Day159.64848634
Epoch Year2024
RAAN168.8975
Inclination97.6468
Eccentricity0.0008764
Argument of Perigee203.2539
Mean Anonmoly156.8354
Mean Motion16.20169006
Decay Rate0.03338349
L11 44419U 19038F 24159.64848634 .03338349 25950-5 17433-2 0 9996
L22 44419 97.6468 168.8975 0008764 203.2539 156.8354 16.20169006273709



Live tracking and technical data element details for JAISAT-1 (NORAD 44419). JAISAT-1 can be tracked NOW for your location showing map with azimuth and elevation plus other details from your city location.







IsCatalogInMostPopularTable: catalog: 44419, numindb: 306
Update: records affected: 1



GetName: 44419 JAISAT-1

Hit Count: updated at: Fri, 24 Jan 2025 23:48:39 GMT